Weather Roundup
Issued by NWS Chicago, IL

Home | Current Version | Previous Version | Text Only | Print | Product List | Glossary On
Versions: 1 2 3 4 5 6 7 8 9 10 11 12 13 14 15 16 17 18 19 20 21 22 23 24 25 26 27 28 29 30 31 32 33 34 35 36 37 38 39 40 41 42 43 44 45 46 47 48 49 50
000
NZUS59 KLOT 012306
HRRLOT

CHICAGO AREA WEATHER ROUNDUP
NATIONAL WEATHER SERVICE CHICAGO/ROMEOVILLE IL
600 PM CDT WED OCT 01 2014

NOTE: "FAIR" INDICATES FEW OR NO CLOUDS BELOW 12,000 FEET WITH NO
SIGNIFICANT WEATHER AND/OR OBSTRUCTIONS TO VISIBILITY.

* THESE STATIONS ARE NOT UNDER NWS QUALITY CONTROL. THEY ALSO MAY NOT
  REPORT WEATHER SUCH AS PRECIPITATION OR FOG.

ILZ005-006-012>014-019>023-020000-
NORTHEAST ILLINOIS

CITY           SKY/WX    TMP DP  RH WIND       PRES   REMARKS
OHARE          MOCLDY    67  53  61 E13       29.89S
MIDWAY         MOCLDY    71  55  56 SE10      29.89S
AURORA         CLOUDY    71  55  56 E10       29.87R
LANSING*       PTCLDY    67  54  62 SE8       29.91R
JOLIET*        MOCLDY    70  55  59 E9        29.88R
WAUKEGAN       PTCLDY    60  54  80 E7        29.91
DUPAGE AIRPORT MOCLDY    69  55  60 SE9       29.88S
WHEELING       PTCLDY    65  53  65 E5        29.92R
MORRIS*        CLOUDY    73  59  62 SE8       29.85S
LEWIS AIRPORT* MOCLDY    69  54  58 SE9       29.89R
NORTHERLY IS     N/A     64  58  80 SE6         N/A
$$

WIZ051-052-058>065-066-070>072-020000-
SOUTHEAST WISCONSIN

CITY           SKY/WX    TMP DP  RH WIND       PRES   REMARKS
MILWAUKEE      MOCLDY    60  53  77 SE12      29.92F
KENOSHA*       PTCLDY    61  53  75 SE8       29.92S
RACINE*        PTCLDY    61  53  75 SE12      29.93F
BURLINGTON     MOCLDY    59  51  74 SE7       29.90S
WAUKESHA       CLEAR     57  50  77 SE12      29.92S
WEST BEND      MOCLDY    55  50  82 SE8       29.92R
$$

INZ001>003-010>013-019-020-020000-
NORTHWEST INDIANA

CITY           SKY/WX    TMP DP  RH WIND       PRES   REMARKS
GARY*          MOCLDY    68  52  56 SE8       29.91S
MICHIGAN CITY* NOT AVBL
RENSSELAER*    NOT AVBL
VALPARAISO     PTCLDY    65  50  58 SE7       29.93F
$$

LMZ740>746-020000-
SOUTHERN LAKE MICHIGAN

STATION/POSITION TIME  SKY/WX   TEMP WIND        PRES    VSBY
                                AIR  DIR/SP/G
                 (UTC)          (F)  (DEG/KT/KT) (MB)    (MI)
HARRISON CRIB    2300            65  130/ 15/ 16   N/A
BURNHAM HARBOR   NOT AVBL
CALUMET HARBOR   2300            69  140/  6/ 12 1011.5R
BURNS HARBOR     NOT AVBL
MICHIGAN CITY    2300            67  110/ 10/ 14   N/A
$$

ABBREVIATIONS USED IN REMARKS
   TC - TEMPERATURE IN CELSIUS
  WCI - WIND CHILL INDEX
   HX - HEAT INDEX
  VSB - VISIBILITY
$$


USA.gov is the U.S. government's official web portal to all federal, state and local government web resources and services.